050  
NZUS99 KSGF 261857  
HRRSGF  
 
HOURLY WEATHER  
NATIONAL WEATHER SERVICE SPRINGFIELD MO  
200 PM CDT THU APR 26 2018  
   
.....SGF CWA...
 
 
 
CITY SKY/WX TMP DP RH WIND PRES REMARKS  
SPRINGFIELD CLOUDY 59 47 64 CALM 29.98F  
JOPLIN PTSUNNY 58 49 72 NW8 30.02F  
ROLLA PTSUNNY 62 45 53 CALM 29.96F  
BRANSON PTSUNNY 55 48 76 NW5 29.99F  
   
.....SURROUNDING SGF CWA...
 
 
 
CITY SKY/WX TMP DP RH WIND PRES REMARKS  
CHANUTE PTSUNNY 63 47 55 VRB7 30.01F  
PARSONS CLOUDY 62 48 60 CALM 30.02F  
COFFEYVILLE CLOUDY 60 49 66 S6 30.02S  
EMPORIA MOSUNNY 63 45 51 CALM 29.99F  
HARRISON AR CLOUDY 57 49 74 NW7 29.98F  
   
.....KANSAS AND MISSOURI...
 
 
 
CITY SKY/WX TMP DP RH WIND PRES REMARKS  
KANSAS CTY INT CLOUDY 63 45 51 W6 29.99F  
SEDALIA CLOUDY 66 44 45 N8 29.98F  
ST JOSEPH PTSUNNY 66 46 48 W13 29.98F  
ST LOUIS PTSUNNY 69 41 36 NW6 29.93F  
WICHITA CLOUDY 66 42 41 VRB5 30.01S  
TOPEKA CLOUDY 65 49 56 MISG 29.99F  
OLATHE CLOUDY 61 46 57 MISG 29.99F  
   
.....TENNESSEE...
 
 
 
CITY SKY/WX TMP DP RH WIND PRES REMARKS  
MEMPHIS NOT AVBL  
NASHVILLE LGT RAIN 59 54 83 VRB3 29.87F  
   
.....ARKANSAS....
 
 
 
CITY SKY/WX TMP DP RH WIND PRES REMARKS  
FAYETTEVILLE CLOUDY 56 48 74 N6 30.00S  
FT SMITH MOSUNNY 64 50 60 VRB5 29.99F  
LITTLE ROCK PTSUNNY 64 50 60 NW16 29.94S  
   
.....OKLAHOMA....
 
 
 
CITY SKY/WX TMP DP RH WIND PRES REMARKS  
TULSA PTSUNNY 59 47 64 NE6 30.01F  
PONCA CITY SUNNY 63 45 51 VRB3 30.00F  
MCALESTER CLOUDY 59 48 67 N9 30.03F  
OKLAHOMA CITY MOSUNNY 65 41 41 N8 30.00F  
   
.....IOWA.........
 
 
 
CITY SKY/WX TMP DP RH WIND PRES REMARKS  
DES MOINES NOT AVBL  
QUAD CITIES FAIR 69 33 26 N8 29.90F  
   
.....ILLINOIS.....
 
 
 
CITY SKY/WX TMP DP RH WIND PRES REMARKS  
QUINCY NOT AVBL  
CHICAGO PTSUNNY 64 28 25 CALM 29.90F  
 
 
 
CLICK HERE TO GO TO PREVIOUS BULLETINS.

The Nexlab MO Page
The Nexlab KS Page Main Text Page